P/2021 Q5 ( ATLAS )

Japanese version
Home page
Updated on October 28, 2021

---------------------------------------------------------------------

* Profile

Discovery Date August 29, 2021
Magnitude 17.5 mag
Discoverer Asteroid Terrestrial-Impact Last Alert System (ATLAS) search program

* Pictures

* Orbital Elements

Epoch 2021 Aug. 14.0 TT = JDT 2459440.5                                         
T 2021 Aug. 30.34197 TT                                 Rudenko                 
q   1.2327067            (2000.0)            P               Q                  
n   0.16993306     Peri.  180.81113     +0.49246292     -0.85536096             
a   3.2281284      Node   239.70035     +0.79956000     +0.51758596             
e   0.6181358      Incl.   10.72954     +0.34377911     +0.02150370             
P   5.80                                                                        
From 92 observations 2021 Aug. 29-Sept. 5, mean residual 0".6.                  

* Finding Charts

* Magnitudes Graph

        m1 = 13.0 + 5 log d + 10.0 log r

---------------------------------------------------------------------

The orbital elements are published on M.P.E.C. 2021-R98.
The charts are made with StellaNavigator Ver.10 (AstroArts).
The magnitudes graphs are made with Comet for Windows.

---------------------------------------------------------------------

Copyright(C) Seiichi Yoshida (comet@aerith.net). All rights reserved.